Showing default

HAWK-5C, 52754

Orbit data source: Space-Track

HAWK-5C, 52754 is a payload satellite owned by HawkEye 360 (US) in SSO that was launched on Wed, 25 May 2022 UTC via an FALCON 9 launch vehicle from the Air Force Eastern Test Range (AFETR). Payload-class satellites include a variety of spacecraft equipped with specific instruments for various scientific and technological missions. These include communications satellites like Starlink; space stations such as the ISS; scientific satellites like the Hubble; Earth observation satellites from companies like Planet Labs, Umbra, and HawkEye 360; GPS; miniature CubeSats for education and research; and military/defense satellites.

Loading next visibility...
Identifier
52754, 2022-057Y
Orbit
SSO
Country
Flag of USUS
Related business
Manufacturer
UTIAS-SFL
Mission
Operational Commercial Sigint
Bus & Motor
DEFIANT, Unknown motor
Mass
31 kg wet, 30 kg dry
Launch date (UTC)
2022-05-25 (4 years ago)
Launch vehicle
FALCON 9
Launch site
Air Force Eastern Test Range (AFETR)
Object type
Payload
Rocket body
Debris
Shape & HBR
Box + 2 Pan, 1.0 m
Radar Cross Section
0.348 m², Medium (>0.1 m² and < 1m²)

Expand to show TLE details & history
Last TLE update: 2 days ago

TLE from 2 days ago
0 HAWK-5C
1 52754U 22057Y   26171.39803269  .00015869  00000-0  27008-3 0  9995
2 52754  97.6611 331.2719 0004806  73.7971 286.3809 15.51490259226842
Epoch: 2026-06-20T09:33Z
TLE epoch observation values (Epoch: 2026-06-20T09:33:10.024Z)
Latitude
-0.00001°
Longitude
-80.6331°
Altitude
414.58 km
Speed
7.663 km/s
True Right ascension
22h 05m 05s
True Declination
0° 00' 00"
Sunlit
Object was in full shadow at epoch
Visualization orbit readout
Latitude
Unknown
Longitude
Unknown
Altitude
Unknown
Speed
Unknown
Apparent Right ascension
Unknown
Apparent Declination
Unknown
Sunlit
N/A
Visualization observer readout
Local Sidereal Time
21:57:42
Azimuth
Unknown
Elevation
Unknown
Doppler factor
Unknown
Orbital elements
Apogee altitude
412.572 km
Perigee altitude
406.047 km
Semi-major axis
6,787.446 km
Eccentricity
0.00048
Inclination
97.6611°
RAAN
331.2719°
Arg. of periapsis
73.7971°
True anomaly
286.32805°
Mean anomaly
286.3809°
Eccentric anomaly
286.35448°
Mean motion
3.88136 °/min
Orbital period
92.75 mins
BSTAR
0.00027008
Loading maneuver chart data...
Computing Atmospheric mass density...

Documentation

Showing up to 5 results
|